Location: Unspecified
(35.6961°N, 0.0000°E)
Time: 01:56:06
(UTC+00:00)

Vanguard 2 Rocket - Pass Details

Date: 02 June 2019
Orbit: 554 x 3326 km, 32.9° (Epoch: 16 June)

Event Time Altitude Azimuth Distance (km) Brightness Sun altitude
Rises 03:59:05 0° 252° (WSW) 6,997 - -8.8°
Exits shadow 04:01:54 - 252° (WSW) 6,452 10.6 -8.3°
Reaches altitude 10° 04:03:31 10° 251° (WSW) 6,141 10.5 -8.1°
Maximum altitude 04:24:02 78° 170° (S) 3,214 9.6 -4.6°
Drops below altitude 10° 04:40:19 10° 87° (E) 5,049 12.0 -1.7°
Sets 04:43:34 0° 86° (E) 5,757 12.4 -1.1°
